RH
88 85 86 81 76 80 84 87 87 85 85 83 79 80 84 85 84 83 82 83 85 87 88 91 88 82 80 80 76 72 70 67 69 70 71 73 70 70 73 73 68 69 68 64 64 64 63 62 65 64 62 65 68 76 81 77 76 75 73 69 67 66
90 86 87 85 77 79 87 88 86 87 88 85 83 85 88 87 85 84 84 83 84 86 89 90 88 85 81 81 79 76 75 73 72 71 73 75 73 72 71 70 68 68 69 67 65 63 62 62 64 64 61 62 63 73 82 80 77 75 74 70 67 66
92 90 88 84 73 76 87 87 86 88 86 86 88 85 83 85 84 81 83 83 83 86 88 88 87 86 82 80 79 78 77 76 75 73 75 76 74 74 71 69 70 71 72 70 66 65 64 63 63 63 60 59 60 71 81 80 78 76 74 70 68 65
90 90 87 79 68 68 78 79 81 81 78 81 84 80 77 82 83 80 82 85 87 91 92 89 90 89 84 80 78 79 79 76 75 75 75 75 72 72 70 69 71 73 74 72 70 69 67 63 61 62 61 57 58 71 80 76 76 76 73 71 67 63
77 81 78 71 63 60 65 69 74 77 75 78 80 80 80 82 82 81 82 84 88 95 96 92 92 92 87 82 77 77 79 75 72 71 71 70 65 64 65 65 67 70 73 72 70 70 67 63 61 62 61 59 58 69 80 76 75 74 72 72 66 62
62 69 67 62 59 57 60 65 72 76 76 78 79 81 83 81 81 81 81 82 86 93 96 93 91 90 88 86 81 77 77 74 71 69 68 65 59 59 64 65 64 64 67 70 69 68 66 63 62 61 62 63 60 67 79 77 76 74 73 72 64 62
56 60 60 58 58 58 58 61 68 74 75 76 79 81 82 80 80 81 81 81 84 89 92 92 89 85 86 86 84 80 76 74 73 69 68 66 58 61 72 73 70 65 63 66 66 65 65 65 66 64 62 63 62 67 76 78 76 74 72 69 64 63
56 55 56 57 58 59 58 60 64 69 73 75 77 79 81 83 83 82 83 82 84 88 87 88 87 84 84 85 86 86 83 78 75 71 72 71 62 64 76 77 75 72 66 64 65 66 67 68 67 65 62 62 62 64 70 76 77 75 71 67 64 64
60 56 55 56 56 58 58 60 62 63 70 75 76 79 81 84 85 85 85 86 86 87 85 85 85 83 85 88 88 89 93 90 82 76 77 78 69 67 76 78 77 76 72 69 69 71 70 68 66 63 62 60 60 60 63 71 76 75 72 67 65 66
64 62 61 60 58 59 59 60 61 62 66 71 74 77 81 83 86 87 88 89 89 89 89 89 88 86 87 91 90 89 95 99 93 88 87 87 79 74 77 79 78 76 74 74 73 73 71 70 66 62 61 60 59 58 61 69 73 75 74 69 67 68
71 72 70 69 69 70 69 64 62 64 67 68 73 81 86 89 91 91 91 91 89 89 93 94 94 94 91 91 93 91 95 100 99 97 95 92 88 84 83 81 79 76 75 75 74 74 72 71 66 60 59 59 58 57 60 68 72 72 74 73 69 70
80 81 80 80 81 82 80 75 70 71 75 77 81 89 93 94 95 93 93 93 91 91 95 95 95 97 95 92 93 92 93 96 98 97 94 91 90 89 87 84 81 78 76 76 74 74 72 69 64 60 58 57 57 56 57 64 72 73 73 74 72 71
88 87 86 86 85 85 85 83 80 81 86 88 91 95 94 93 94 93 92 94 95 96 96 94 94 94 93 91 91 90 90 91 93 94 93 92 90 90 89 87 84 81 78 76 74 75 73 69 65 63 60 59 60 57 55 57 65 72 73 74 73 72
92 90 88 89 87 86 87 87 88 91 93 94 95 95 93 92 94 94 92 93 96 97 95 95 95 92 91 91 90 87 87 89 92 92 92 93 92 90 90 91 90 87 82 78 77 76 74 71 68 64 61 64 65 60 57 55 56 63 69 74 74 73
93 92 89 89 88 85 85 86 89 92 93 94 95 94 93 93 94 93 91 91 95 97 95 95 96 94 92 92 90 85 85 88 90 92 91 91 92 91 90 91 93 91 86 81 77 75 73 71 68 64 60 64 67 65 61 57 55 56 61 70 74 74
94 92 89 88 86 82 80 80 84 88 89 90 93 93 93 94 95 93 91 92 96 98 97 97 97 96 95 93 89 85 86 88 90 91 91 90 92 93 91 90 91 92 89 83 79 77 73 69 65 62 61 63 66 69 66 61 58 57 61 70 74 74
91 87 84 84 83 80 77 78 82 85 87 91 93 92 93 95 97 96 93 91 94 98 99 98 97 96 97 95 90 88 88 91 92 92 91 92 93 94 91 89 90 93 92 87 83 81 76 69 64 59 59 63 66 69 69 66 62 59 64 73 77 76
85 81 78 79 82 81 78 79 82 84 86 89 92 92 94 95 94 92 90 87 88 91 93 93 93 94 97 97 95 93 92 95 96 92 91 93 94 93 90 90 94 96 96 92 87 86 79 71 68 61 57 62 67 70 70 70 67 63 63 70 77 78
80 78 78 79 81 80 78 79 81 82 84 85 86 90 93 91 89 85 81 80 79 82 85 85 87 91 94 95 95 95 94 94 95 93 92 93 91 90 89 93 96 97 99 97 92 89 82 75 75 71 64 64 66 68 70 71 71 68 66 71 77 79
80 80 80 79 76 75 78 79 79 80 82 82 82 86 89 87 83 78 73 72 71 72 75 77 81 86 88 88 87 88 89 92 94 94 93 93 90 89 92 97 97 97 99 99 97 92 87 83 82 80 77 71 66 66 67 69 72 71 70 72 75 77
81 77 73 73 71 71 75 77 79 80 80 79 78 78 80 78 73 70 69 69 69 67 67 69 71 76 80 80 81 83 84 90 95 95 95 97 96 95 98 100 100 100 100 100 100 96 91 89 87 86 84 79 75 71 65 62 65 69 72 72 73 74
73 66 62 66 67 69 73 73 73 77 78 77 75 72 70 69 67 67 67 68 68 67 67 64 62 66 74 76 77 79 82 89 94 96 98 100 100 100 100 101 100 101 100 100 100 98 93 90 90 88 87 88 87 80 73 67 63 65 68 69 72 72
63 61 63 65 64 66 69 66 64 71 77 77 75 70 65 65 64 60 60 61 63 66 66 62 60 64 70 72 73 73 78 86 91 93 95 96 98 99 100 101 100 100 101 100 100 99 96 92 91 89 88 92 92 87 83 79 77 75 68 65 68 71
61 62 64 65 63 61 61 61 62 69 75 75 71 66 62 63 58 53 55 59 60 63 63 60 61 64 67 71 72 69 70 78 84 87 89 90 91 94 98 101 100 100 100 100 100 100 99 97 94 90 89 94 96 93 86 86 93 93 83 73 67 67
62 63 63 63 62 57 56 59 63 67 67 65 64 61 60 62 57 53 58 61 61 60 59 59 60 62 63 67 68 63 62 70 78 84 86 84 84 88 95 99 100 100 100 100 100 100 100 101 98 92 90 95 96 93 92 94 95 95 95 91 81 75
62 61 60 60 59 55 54 56 59 62 60 58 61 60 59 62 60 58 59 61 61 60 58 57 57 58 59 61 60 59 60 64 71 77 77 76 77 82 85 90 94 97 98 99 100 101 100 100 101 97 94 96 94 91 94 96 89 88 95 97 94 93
60 58 55 54 53 51 52 55 56 57 57 56 56 57 60 63 62 60 60 61 60 58 57 57 56 55 56 57 56 56 57 60 64 67 67 67 70 74 76 80 85 89 94 96 97 100 101 100 101 100 100 99 96 93 93 93 90 88 91 91 89 94
60 57 54 51 48 48 50 54 56 56 56 54 48 51 62 66 63 62 60 60 60 59 58 58 56 54 54 55 55 53 51 50 56 62 63 63 66 69 71 73 77 81 86 91 92 93 95 97 97 98 102 98 92 92 91 91 89 86 91 95 91 87
63 59 56 54 51 50 51 53 55 54 54 52 45 50 64 67 64 64 62 60 59 59 58 57 56 54 52 53 52 50 46 40 47 59 62 63 67 68 68 69 70 73 79 83 81 77 78 84 88 93 96 90 88 92 91 90 85 82 90 95 97 92
67 62 57 57 57 54 52 53 53 53 52 50 48 55 66 68 66 65 63 60 59 58 58 57 55 52 50 49 48 47 44 39 44 52 54 58 64 64 63 65 67 68 71 72 68 63 62 67 75 84 89 86 86 87 82 82 82 82 85 82 85 84
71 64 60 62 62 55 52 52 51 52 50 48 52 59 64 66 67 63 59 59 61 59 57 57 54 51 49 48 47 47 44 44 49 50 48 50 54 57 58 61 64 65 64 64 62 61 60 60 63 71 78 77 72 70 65 65 67 69 72 70 70 71
73 67 65 66 63 56 52 52 51 52 49 45 51 58 60 64 63 57 54 59 63 58 52 52 51 50 51 49 49 49 45 47 52 52 51 49 45 46 52 56 60 61 60 59 58 59 58 58 58 59 62 62 59 58 56 54 54 52 54 55 57 65
75 72 68 65 62 56 53 52 52 51 47 44 50 54 58 61 56 50 53 60 62 57 50 49 48 46 49 50 50 47 45 50 55 55 56 54 45 38 37 42 52 59 60 57 55 57 57 55 56 54 54 56 56 56 54 52 52 49 48 45 44 55
75 73 66 62 60 57 53 52 53 50 44 44 51 54 55 53 47 46 54 57 56 52 46 46 45 42 42 45 44 41 43 50 56 55 56 56 53 46 36 31 39 51 59 61 56 55 57 55 55 55 54 54 55 57 58 56 52 50 49 46 46 53
68 66 65 62 58 55 53 53 51 45 41 44 49 53 52 46 42 47 53 55 51 44 41 42 43 40 37 37 34 33 38 45 50 50 50 52 55 54 45 32 29 36 46 59 62 57 56 56 53 51 51 54 56 55 56 58 56 54 54 51 54 55
63 60 65 63 56 54 53 52 49 42 41 46 49 52 52 46 46 50 52 52 45 36 35 40 41 38 37 36 32 30 33 37 40 41 43 48 52 54 50 38 31 32 35 46 58 61 60 58 54 50 48 48 47 44 47 57 59 57 56 53 55 53
72 69 71 67 61 57 55 51 48 44 45 49 50 52 51 46 47 52 53 51 43 37 37 39 38 36 37 40 41 40 39 35 33 35 41 46 50 52 52 44 37 37 36 37 47 58 62 61 58 58 53 44 41 43 48 56 57 56 54 50 50 50
Wind_Speed
21 21 21 21 19 18 16 16 16 16 15 15 15 14 13 13 13 13 12 12 11 11 10 10 9 9 9 8 8 8 8 8 8 8 7 7 6 6 7 6 6 6 6 7 7 6 6 6 7 6 6 6 5 5 6 9 12 12 10 8 8 6
19 19 21 20 19 18 16 15 16 15 15 15 14 14 13 13 12 12 12 11 11 10 10 9 9 8 8 8 8 8 8 8 8 8 7 7 6 6 6 6 6 6 7 7 7 6 6 6 6 5 5 6 5 4 4 8 12 12 11 9 7 5
18 18 19 19 19 18 16 15 16 16 15 15 14 13 13 12 12 10 10 10 10 9 9 9 9 8 8 8 8 8 8 8 8 8 7 6 5 5 5 5 5 5 6 6 6 5 5 5 5 5 4 5 5 3 4 6 11 12 11 9 7 5
16 18 19 18 19 18 17 16 15 15 15 14 13 12 11 10 10 9 8 9 9 9 9 9 9 8 8 9 9 9 9 8 8 7 7 6 5 5 5 4 4 4 5 5 5 4 3 4 4 3 3 4 4 3 4 5 9 11 12 10 7 5
16 18 19 19 19 18 17 16 15 14 13 13 12 11 11 9 9 8 8 8 8 9 9 9 8 8 9 9 9 10 9 9 8 8 7 7 6 5 5 4 4 4 5 5 4 3 3 2 2 1 1 2 3 4 5 5 6 9 11 10 7 6
19 19 19 18 18 17 16 15 14 13 12 12 11 11 10 9 8 8 8 8 8 9 9 9 8 8 9 9 10 10 10 9 9 8 8 7 6 5 4 4 4 5 6 6 4 3 3 2 2 1 1 1 3 5 6 6 5 8 10 10 8 6
20 20 18 17 16 16 16 15 14 13 12 11 10 10 9 9 8 7 8 8 9 9 10 10 9 9 9 10 11 11 11 10 10 9 8 7 6 6 5 3 3 4 5 6 5 3 3 3 5 3 2 1 4 6 6 6 6 8 9 10 8 6
21 20 18 17 16 16 16 15 14 14 13 11 10 9 8 8 7 7 7 7 8 9 10 11 11 10 10 11 12 11 11 10 9 9 8 7 6 6 5 3 3 3 4 5 4 3 2 2 5 4 2 2 5 6 7 6 7 8 10 9 8 7
21 20 19 18 18 17 17 16 16 15 13 12 10 9 8 8 7 7 7 8 9 10 11 11 11 11 11 11 11 11 10 10 8 8 7 7 6 6 5 3 2 2 4 4 4 2 1 3 6 5 3 3 4 6 7 8 8 9 10 10 8 7
21 20 20 19 19 18 18 17 17 15 14 13 11 10 9 9 8 8 8 8 9 11 11 11 11 11 11 10 10 10 10 9 7 7 7 6 6 5 4 3 2 2 3 4 4 2 2 3 5 5 5 5 5 5 7 9 8 9 11 11 9 7
21 20 20 19 19 18 18 18 17 15 14 13 12 10 10 10 10 9 9 9 10 11 11 11 11 11 10 9 9 9 9 9 7 6 6 6 6 6 6 5 5 5 5 6 5 4 4 4 3 3 5 7 7 6 7 9 10 9 10 11 11 9
21 20 20 19 18 17 17 16 16 15 14 13 11 10 10 10 10 10 10 10 10 10 11 11 11 11 10 8 8 8 9 9 7 7 7 7 8 8 8 8 7 6 6 6 6 5 4 3 1 1 3 5 6 7 7 9 11 11 11 12 12 10
21 20 20 18 17 16 15 15 15 14 14 13 11 10 10 9 9 9 9 10 10 10 11 11 11 11 9 8 7 8 9 9 9 8 9 9 9 9 9 8 7 6 6 6 6 5 5 4 3 1 3 3 2 5 6 7 10 11 12 13 13 12
22 20 19 18 17 16 14 14 14 13 13 12 11 10 9 9 10 9 8 8 9 10 10 11 11 11 10 8 8 8 10 11 10 10 10 10 9 9 9 8 8 8 7 6 5 4 4 4 3 1 1 2 2 2 4 6 8 10 12 14 15 13
23 21 20 19 17 15 13 13 12 12 12 12 11 10 10 10 10 8 6 6 7 8 9 10 11 11 10 9 9 10 11 12 11 10 10 9 9 9 8 7 7 8 8 8 6 4 4 3 3 2 2 2 3 3 2 5 7 9 11 14 15 14
24 21 19 17 15 13 12 11 11 11 11 11 11 9 9 9 8 6 5 5 6 7 8 9 10 11 10 9 9 10 11 11 10 9 10 10 9 9 8 7 8 8 9 9 7 5 3 2 3 3 4 3 3 3 2 3 5 8 12 15 16 15
23 21 18 16 14 13 11 11 11 11 10 10 9 8 7 6 5 4 3 2 3 5 6 7 8 9 9 9 9 9 9 9 8 8 9 10 10 10 9 8 9 9 9 8 7 5 3 2 3 4 5 4 4 4 4 4 3 6 10 15 16 16
21 19 16 15 15 14 13 12 11 10 8 8 8 7 6 5 5 4 2 2 2 2 2 3 4 6 7 8 9 9 9 9 9 9 9 10 11 11 9 8 9 9 8 8 7 6 5 3 3 4 4 5 5 5 5 6 5 5 9 13 16 17
20 18 17 15 15 15 14 13 12 9 8 8 8 8 8 7 7 7 5 5 4 4 4 3 4 5 5 6 6 7 8 8 9 9 9 10 12 11 9 8 9 9 8 8 7 6 5 4 3 3 4 4 4 5 6 6 6 7 7 8 10 12
20 20 19 17 17 17 16 15 13 11 10 10 10 11 10 10 9 7 6 6 5 6 5 5 4 4 5 4 4 4 5 5 6 7 8 9 10 9 7 7 8 8 8 8 8 7 6 5 4 3 3 3 3 4 5 5 6 8 8 7 5 5
22 21 21 21 21 20 19 17 14 12 13 13 13 13 13 11 10 8 7 6 5 5 5 5 4 5 6 5 5 4 3 4 4 4 5 6 6 6 6 6 6 6 6 7 9 10 8 6 4 3 2 3 4 6 6 6 5 7 8 7 7 6
24 23 23 24 23 21 20 17 15 14 15 15 14 13 13 11 10 9 8 6 5 4 4 3 3 5 7 7 6 5 3 3 3 3 3 3 4 4 4 5 5 5 6 7 7 8 8 6 4 4 3 1 2 4 6 7 7 8 8 8 8 7
26 25 25 24 23 20 18 16 15 16 18 16 14 13 13 12 10 8 8 7 6 4 3 2 3 6 9 8 7 6 5 5 5 5 3 2 2 3 3 2 3 5 7 8 6 5 7 6 4 5 4 1 1 1 3 4 5 6 7 9 10 10
27 26 26 24 21 19 18 16 15 17 19 18 16 15 14 12 10 8 8 7 6 5 3 3 5 7 10 9 7 6 6 6 7 7 5 4 4 3 2 2 2 3 5 7 7 5 6 6 5 4 3 1 1 1 0 1 2 3 4 7 9 9
27 26 24 23 20 19 19 18 18 19 19 18 18 16 15 13 10 9 8 7 7 7 6 6 6 7 9 9 8 6 5 5 6 7 6 5 5 5 4 3 2 2 2 5 6 5 5 5 5 4 3 2 2 1 1 1 2 3 4 6 7 8
26 25 24 22 21 20 19 19 19 19 18 18 17 15 14 13 11 10 9 8 9 8 7 8 8 7 8 9 8 7 5 5 6 7 7 6 6 5 5 5 4 3 2 4 5 6 6 6 5 4 4 3 2 1 1 1 1 1 2 5 7 7
26 25 24 22 20 21 20 19 19 18 17 16 15 12 12 12 12 11 11 10 10 9 7 7 8 8 8 9 9 8 7 7 6 6 6 5 5 5 5 6 6 5 4 3 4 6 7 6 5 5 4 2 1 2 1 1 2 2 1 3 4 5
27 26 24 21 21 22 22 21 20 18 17 15 13 13 13 12 12 12 12 11 10 8 7 5 6 6 8 10 9 8 7 6 5 5 5 5 5 5 5 5 6 6 7 6 3 3 5 4 4 6 6 3 1 2 2 1 2 2 3 2 1 2
27 25 23 21 21 22 23 23 22 20 18 15 14 15 15 13 12 12 11 10 8 7 6 5 5 6 8 9 8 7 6 5 5 5 5 5 6 6 6 5 6 6 6 7 6 6 6 5 4 5 6 4 4 4 3 3 4 4 4 3 0 0
26 24 23 21 21 22 24 25 24 22 20 17 16 17 17 14 12 11 10 10 9 8 7 7 8 8 8 7 6 5 5 6 7 6 6 5 5 6 6 6 7 7 7 7 8 7 8 7 6 6 6 5 5 5 4 3 4 4 4 5 3 1
21 22 22 20 21 23 26 26 25 23 20 19 19 20 18 16 13 12 11 11 9 8 9 9 9 9 9 7 6 5 4 7 9 9 8 6 5 5 5 6 7 7 8 8 7 6 6 7 7 7 7 6 6 6 6 5 5 4 4 4 4 2
18 20 20 20 22 24 26 26 24 22 21 20 21 21 20 18 15 14 13 12 11 10 10 10 10 10 9 8 6 5 5 7 8 9 9 9 7 6 5 5 6 6 6 6 5 5 6 7 6 7 8 7 7 7 7 7 6 6 6 5 4 3
16 17 18 20 23 25 26 25 24 23 21 21 22 21 20 19 17 15 14 13 13 12 12 11 11 11 11 9 7 6 6 6 7 7 8 9 9 8 7 6 6 6 6 6 6 6 7 8 7 8 8 7 7 6 7 7 6 5 5 4 4 4
18 18 19 21 24 25 26 26 24 23 22 22 22 21 19 19 18 16 15 15 14 13 13 13 12 12 12 10 8 7 7 6 6 6 6 6 8 9 8 7 7 6 6 7 7 7 8 8 8 8 7 7 8 8 8 8 6 6 6 5 5 4
27 25 24 26 27 28 27 26 24 23 22 23 22 21 19 19 19 18 16 16 15 14 13 12 11 11 11 11 10 9 8 7 6 5 4 5 6 7 7 7 7 7 7 6 6 7 8 8 8 8 7 6 7 8 8 7 8 9 9 9 10 8
33 31 30 32 32 30 28 25 24 24 24 23 23 22 21 21 20 19 17 17 15 14 14 12 11 11 12 12 11 10 9 8 7 6 5 5 5 5 6 6 7 7 8 6 5 6 7 7 8 9 8 7 6 7 7 7 8 9 10 10 11 12
31 30 32 32 30 28 27 24 23 24 25 25 24 24 23 23 22 19 18 17 16 15 14 13 12 11 12 11 10 10 8 8 8 8 8 7 6 5 5 5 5 6 7 7 6 6 6 6 7 8 8 8 8 10 10 8 8 8 8 9 9 10
Wind_Direction
159 158 160 161 164 165 161 158 156 156 155 156 157 155 155 156 157 158 160 160 159 157 153 145 138 137 135 138 145 147 150 151 152 152 151 149 145 140 138 133 131 139 141 145 150 141 124 114 101 92 102 101 98 88 109 161 175 178 180 176 166 159
159 159 161 164 168 166 162 160 159 159 158 157 158 158 159 161 163 164 165 166 165 162 157 149 144 141 137 141 150 155 155 155 158 159 160 157 153 147 146 147 145 150 151 153 158 150 135 122 107 96 106 105 108 105 106 163 183 187 186 182 176 170
162 161 163 167 171 169 167 165 165 167 165 163 165 168 169 168 170 171 170 170 170 167 163 156 150 144 144 152 158 161 162 163 163 165 168 164 160 156 157 159 156 161 163 165 166 159 143 127 110 97 110 109 114 127 108 157 182 189 189 186 187 185
167 165 167 172 175 175 173 173 175 175 174 173 174 177 177 176 176 176 173 174 176 171 166 161 156 156 165 171 169 169 169 171 172 173 173 167 168 172 172 172 172 176 176 179 178 173 158 136 119 95 107 113 119 146 122 141 172 184 191 191 196 196
174 171 174 177 178 179 177 178 181 181 182 182 181 180 180 185 181 178 177 179 182 175 170 169 167 170 179 181 178 180 178 180 183 180 177 172 176 181 179 176 185 194 189 191 190 193 189 162 150 109 89 109 130 163 141 139 165 181 192 194 197 202
182 180 182 185 182 183 184 184 188 188 191 191 189 187 186 192 188 184 182 185 188 180 177 181 182 185 191 190 189 194 191 191 193 190 185 181 179 177 178 181 190 201 197 199 201 215 244 275 282 261 281 96 141 171 162 153 169 184 194 197 198 204
187 187 188 192 190 190 192 193 196 197 201 201 197 195 195 195 194 192 189 191 192 187 184 187 191 199 207 204 200 201 201 203 202 200 199 192 186 176 175 177 182 197 198 203 203 212 249 298 309 297 266 211 162 178 181 172 179 189 195 199 201 208
192 193 194 196 199 200 200 200 204 206 208 208 208 208 207 201 199 199 199 199 198 197 197 197 200 208 217 215 209 204 205 213 210 208 209 205 200 187 180 167 157 185 194 198 195 201 240 323 329 312 282 240 184 186 198 192 189 195 197 198 204 213
194 196 198 199 203 206 206 206 210 214 213 212 214 218 223 219 215 211 208 206 205 210 212 211 212 217 224 221 215 210 212 220 219 214 213 215 216 201 196 195 166 190 200 205 204 207 260 0 347 316 285 253 197 196 211 205 196 200 200 200 208 217
196 199 200 201 206 210 211 211 213 217 218 220 219 222 230 233 232 224 215 212 215 220 222 222 223 226 229 225 220 219 223 226 226 225 224 229 236 229 224 237 264 251 234 239 240 244 290 338 345 319 283 261 225 213 215 207 202 205 205 204 209 216
198 200 201 203 208 212 215 215 217 218 221 226 225 225 230 234 232 227 220 219 220 218 219 224 229 234 234 229 224 225 229 229 231 239 245 252 257 261 258 264 276 271 265 263 261 271 293 307 333 332 294 270 246 233 222 209 207 210 211 212 212 215
198 200 201 205 209 213 217 218 219 220 223 228 228 229 231 232 229 226 224 221 220 214 214 222 231 235 234 231 227 228 232 230 234 244 254 260 261 263 262 266 266 260 262 262 262 269 281 275 256 3 334 291 252 239 234 216 212 215 217 218 218 218
198 200 202 207 210 212 215 216 218 221 226 231 231 231 228 229 226 223 222 218 221 221 222 228 231 230 228 233 233 230 230 229 231 238 247 253 254 256 257 259 252 244 250 254 257 260 262 250 230 297 4 352 264 223 221 215 216 220 224 224 222 222
196 201 203 207 210 208 208 211 217 222 227 230 228 225 219 217 216 218 220 217 222 228 230 231 229 227 226 230 233 231 227 225 228 232 238 245 248 247 250 253 243 236 242 248 250 244 245 243 235 247 35 40 55 156 192 204 212 219 229 230 226 226
192 198 200 203 204 201 201 205 213 218 219 221 220 213 207 207 210 214 222 224 227 231 234 233 229 228 228 229 232 233 227 224 228 231 234 238 242 242 244 250 243 236 236 239 239 233 245 243 222 187 140 108 77 83 158 193 204 211 223 230 229 231
188 193 195 198 197 192 194 198 206 210 208 209 209 202 197 200 204 207 217 231 236 238 239 238 235 232 231 231 230 230 227 225 228 238 241 241 243 243 242 247 246 235 228 230 230 232 253 225 183 170 157 151 121 97 111 167 201 209 217 226 231 234
185 187 188 191 191 189 188 192 196 198 197 196 193 191 188 188 188 193 211 233 232 235 236 235 236 234 231 227 224 226 227 227 234 242 244 246 251 248 242 243 242 233 224 224 224 222 228 195 168 171 166 158 144 134 125 131 177 205 213 221 228 234
184 184 183 185 188 187 182 185 189 187 184 178 178 179 171 160 149 148 145 130 144 165 190 208 215 218 219 219 221 226 228 234 244 244 241 245 251 249 245 240 236 232 221 217 216 213 216 205 180 182 182 171 154 149 146 138 144 175 204 216 223 230
184 184 184 185 183 181 178 179 182 176 168 162 160 160 155 146 139 134 125 116 107 105 122 141 158 175 186 198 211 219 224 235 244 243 241 244 247 248 248 240 234 232 223 214 212 205 203 203 187 181 187 180 163 157 159 147 139 147 168 196 212 223
185 188 188 183 177 177 177 179 179 170 161 154 149 148 150 147 142 137 128 120 107 104 113 116 122 141 148 148 159 184 205 219 231 236 241 246 246 246 249 247 242 236 228 221 219 213 206 207 200 191 198 202 199 201 192 171 158 154 147 148 161 186
186 191 188 180 176 177 178 179 180 172 160 151 149 148 146 145 141 135 132 133 129 121 117 113 115 123 127 135 141 148 175 198 213 218 226 242 246 247 253 254 247 235 223 220 224 223 217 215 209 207 221 228 229 227 222 220 212 192 173 164 157 145
182 185 183 180 178 179 180 179 180 175 164 154 153 153 147 145 142 138 140 144 150 150 139 128 133 133 132 138 136 124 120 139 159 170 187 223 240 244 252 251 243 230 213 207 217 220 212 211 203 189 185 204 241 231 221 222 222 217 207 204 207 200
175 177 177 178 179 178 176 176 174 171 169 162 158 158 152 148 149 149 146 145 157 160 147 139 147 145 140 135 126 116 105 103 108 119 139 161 182 207 217 222 228 227 214 202 199 197 196 202 193 168 145 115 229 218 223 220 203 209 213 212 219 221
173 173 173 174 175 172 167 165 161 160 164 161 157 157 155 154 159 158 140 131 141 145 135 138 141 143 142 138 133 125 116 112 106 103 111 120 120 134 149 164 197 210 213 205 195 190 194 196 188 163 136 107 118 102 226 241 130 142 185 196 209 211
174 173 173 172 172 170 166 163 154 149 151 150 150 156 156 155 158 155 139 126 130 133 128 130 137 143 143 141 138 130 126 131 126 120 125 127 114 102 105 126 148 152 198 209 193 183 190 200 198 183 161 131 94 105 234 235 95 106 146 162 178 186
176 174 174 173 174 175 173 170 163 156 152 149 150 157 156 150 145 144 141 138 138 137 130 124 125 135 141 140 134 126 123 130 137 137 138 133 124 115 105 103 103 117 169 206 194 178 183 206 207 190 175 147 109 137 206 187 131 132 133 143 158 170
175 173 173 173 177 181 178 177 175 171 167 164 161 159 154 145 138 136 137 142 142 139 134 125 119 122 132 134 127 121 118 120 130 135 134 127 123 121 107 95 88 97 125 156 191 188 184 199 202 187 187 181 124 103 111 146 152 150 135 137 154 169
173 173 175 176 180 185 184 182 181 179 177 177 173 160 151 146 141 140 140 141 142 138 136 135 129 124 128 131 123 116 112 115 133 140 138 132 125 121 113 102 95 96 105 107 110 138 151 165 180 189 195 191 158 125 109 115 110 119 145 144 126 139
172 174 178 182 186 189 189 187 185 183 180 178 171 160 158 156 152 151 148 147 149 146 144 146 149 144 137 132 123 114 102 99 126 140 139 133 125 119 110 101 101 106 108 103 94 89 93 102 125 163 171 139 112 116 110 104 96 88 97 108 188 311
172 177 183 189 192 192 193 191 188 186 182 175 165 160 164 166 165 166 161 155 153 152 152 150 150 153 150 143 132 120 101 91 104 118 127 131 129 120 110 103 102 108 113 109 103 92 82 83 93 118 128 110 106 115 114 113 107 94 81 81 99 66
170 182 189 197 200 196 195 193 191 189 184 175 168 165 169 173 177 180 173 163 158 156 159 159 158 158 155 152 144 128 109 97 96 97 98 101 106 105 102 110 112 113 117 114 109 99 86 85 86 95 102 97 97 102 98 96 88 82 80 75 83 59
175 187 198 205 203 198 195 194 194 192 187 180 175 174 176 178 182 184 178 171 170 168 167 166 167 166 161 158 152 137 122 110 100 92 86 83 82 83 87 105 119 120 115 109 106 103 100 99 93 92 97 94 90 88 83 81 72 67 73 81 94 81
180 188 203 207 200 196 196 197 197 194 190 185 182 181 181 182 183 184 183 181 181 181 177 172 171 171 169 169 166 153 139 125 109 95 85 79 74 71 75 90 105 113 106 96 99 106 104 102 94 89 89 88 86 83 77 69 57 56 61 67 92 93
187 188 200 201 196 197 199 199 198 195 193 189 185 185 187 188 185 185 191 192 192 194 191 185 179 176 173 172 172 163 152 141 126 110 94 85 77 71 72 85 96 104 104 96 97 101 99 95 89 83 79 79 81 79 75 66 54 52 54 51 59 77
189 193 200 198 195 197 198 197 197 195 195 194 191 189 192 195 190 188 196 200 201 203 202 196 190 185 177 172 169 164 161 156 146 139 125 104 89 74 68 80 93 98 101 106 105 97 92 88 82 76 74 75 78 76 73 70 64 58 56 54 52 49
189 193 200 200 196 195 194 195 198 197 197 196 194 193 196 199 196 193 199 207 208 208 207 204 201 196 185 176 169 162 164 169 169 169 163 144 120 94 74 77 93 96 96 105 117 106 96 91 80 73 70 68 70 74 77 79 75 68 59 54 49 44
190 194 200 199 195 192 191 194 199 199 198 198 199 198 199 201 199 197 203 211 214 212 212 210 207 201 193 186 180 172 169 174 182 186 182 170 153 130 101 88 97 100 98 103 117 121 109 99 88 78 71 73 78 80 84 87 83 76 66 57 51 48